sat.trackr.live / text

‹ back to catalog

STARLINK-6236

NORAD 56422 · 2023-061BA

PAYLOAD ACTIVE UNKNOWN

§ Identity

Operator
Country
US
Launch date
2023-05-04
Launch site
AFETR
Launch vehicle
Mass (kg)
RCS (m²)

Purposes: comms

External: N2YO · Heavens-Above · Gunter

§ Orbital elements

Epoch: 2026-05-25T03:48:16.268832Z

Period
94.27 min
Inclination
43.0044°
Eccentricity
0.0001879
Mean motion
15.27572420 rev/d
Perigee alt
481.8 km
Apogee alt
484.4 km
Semi-major
6,861.2 km
B*
1.2290e-5
RAAN
107.7791°
Arg perigee
279.4759°
Mean anomaly
80.5880°
Rev number
16,865

§ Raw data

STARLINK-62361 56422U 23061BA  26145.15852163  .00000076  00000+0  12290-4 0  99902 56422  43.0044 107.7791 0001879 279.4759  80.5880 15.27572420168656

JSON: /api/v1/satellites/56422 · /tle

For live sub-satellite position, see the globe view (requires WebGL).

§ Visibility from observer

Set your observer location to see the next 7 days of passes ≥ 10°. The values pass through the URL so the page stays shareable.

No JS? Fill the form by hand. The geolocation button needs JavaScript.